| time (UTC) | temp C | wind direction | speed KPH | gust KPH | rain 1hr cm | rain 24hr cm | rain mn cm | humidity % | barometer mb |
| 20260503050643 | 16 | 345 | 0.0 | 0.0 | 0.00 | 0.00 | 0.00 | 47 | 1014.7 |
| 20260503050139 | 16 | 338 | 0.0 | 0.0 | 0.00 | 0.00 | 0.00 | 47 | 1014.9 |
| 20260503045637 | 16 | 355 | 0.0 | 0.0 | 0.00 | 0.00 | 0.00 | 47 | 1014.8 |
| 20260503045134 | 16 | 334 | 0.0 | 0.0 | 0.00 | 0.00 | 0.00 | 46 | 1014.8 |
| 20260503044631 | 16 | 327 | 0.0 | 0.0 | 0.00 | 0.00 | 0.00 | 47 | 1014.9 |
| 20260503044128 | 16 | 346 | 0.0 | 0.0 | 0.00 | 0.00 | 0.00 | 46 | 1014.9 |
| 20260503043625 | 17 | 10 | 0.0 | 0.0 | 0.00 | 0.00 | 0.00 | 45 | 1014.7 |
| 20260503043122 | 17 | 9 | 0.0 | 0.0 | 0.00 | 0.00 | 0.00 | 43 | 1014.7 |
| 20260503042618 | 18 | 350 | 0.0 | 3.2 | 0.00 | 0.00 | 0.00 | 41 | 1014.8 |
| 20260503042114 | 18 | 6 | 0.0 | 1.6 | 0.00 | 0.00 | 0.00 | 38 | 1014.6 |
| 20260503041611 | 18 | 8 | 0.0 | 0.0 | 0.00 | 0.00 | 0.00 | 39 | 1014.6 |
| 20260503041109 | 18 | 319 | 0.0 | 0.0 | 0.00 | 0.00 | 0.00 | 37 | 1014.4 |
| 20260503040606 | 18 | 324 | 0.0 | 0.0 | 0.00 | 0.00 | 0.00 | 38 | 1014.4 |
| 20260503040103 | 18 | 295 | 0.0 | 0.0 | 0.00 | 0.00 | 0.00 | 38 | 1014.4 |
| 20260503035600 | 19 | 308 | 0.0 | 0.0 | 0.00 | 0.00 | 0.00 | 38 | 1014.3 |
| 20260503035058 | 19 | 334 | 0.0 | 0.0 | 0.00 | 0.00 | 0.00 | 38 | 1014.3 |
| 20260503034554 | 19 | 313 | 0.0 | 1.6 | 0.00 | 0.00 | 0.00 | 38 | 1014.3 |
| 20260503034052 | 20 | 302 | 0.0 | 0.0 | 0.00 | 0.00 | 0.00 | 37 | 1014.3 |
| 20260503033549 | 20 | 303 | 0.0 | 1.6 | 0.00 | 0.00 | 0.00 | 37 | 1013.9 |
| 20260503033047 | 20 | 330 | 1.6 | 1.6 | 0.00 | 0.00 | 0.00 | 37 | 1014.1 |
| 20260503032545 | 20 | 305 | 0.0 | 0.0 | 0.00 | 0.00 | 0.00 | 36 | 1013.9 |
| 20260503032042 | 20 | 349 | 0.0 | 1.6 | 0.00 | 0.00 | 0.00 | 36 | 1013.7 |
| 20260503031540 | 20 | 322 | 0.0 | 1.6 | 0.00 | 0.00 | 0.00 | 36 | 1013.7 |
| 20260503031037 | 21 | 330 | 3.2 | 3.2 | 0.00 | 0.00 | 0.00 | 35 | 1013.6 |
| 20260503030533 | 21 | 324 | 1.6 | 3.2 | 0.00 | 0.00 | 0.00 | 35 | 1013.7 |
| 20260503030030 | 21 | 331 | 0.0 | 0.0 | 0.00 | 0.00 | 0.00 | 35 | 1013.6 |
| 20260503025526 | 21 | 334 | 0.0 | 0.0 | 0.00 | 0.00 | 0.00 | 34 | 1013.6 |
| 20260503025025 | 21 | 329 | 0.0 | 0.0 | 0.00 | 0.00 | 0.00 | 34 | 1013.7 |
| 20260503024520 | 21 | 321 | 1.6 | 3.2 | 0.00 | 0.00 | 0.00 | 33 | 1013.5 |
| 20260503024018 | 21 | 341 | 1.6 | 3.2 | 0.00 | 0.00 | 0.00 | 33 | 1013.5 |
| 20260503023515 | 21 | 320 | 0.0 | 1.6 | 0.00 | 0.00 | 0.00 | 33 | 1013.7 |
| 20260503023012 | 22 | 335 | 1.6 | 3.2 | 0.00 | 0.00 | 0.00 | 33 | 1013.6 |
| 20260503022508 | 22 | 344 | 3.2 | 3.2 | 0.00 | 0.00 | 0.00 | 32 | 1013.6 |
| 20260503022003 | 22 | 311 | 1.6 | 3.2 | 0.00 | 0.00 | 0.00 | 32 | 1013.5 |
| 20260503021500 | 22 | 319 | 3.2 | 3.2 | 0.00 | 0.00 | 0.00 | 31 | 1013.5 |
| 20260503020957 | 22 | 314 | 3.2 | 3.2 | 0.00 | 0.00 | 0.00 | 31 | 1013.5 |
| 20260503020454 | 23 | 333 | 1.6 | 4.8 | 0.00 | 0.00 | 0.00 | 31 | 1013.5 |
| 20260503015950 | 23 | 336 | 3.2 | 3.2 | 0.00 | 0.00 | 0.00 | 31 | 1013.5 |
| 20260503015447 | 23 | 326 | 3.2 | 4.8 | 0.00 | 0.00 | 0.00 | 31 | 1013.5 |
| 20260503014944 | 23 | 319 | 1.6 | 1.6 | 0.00 | 0.00 | 0.00 | 31 | 1013.6 |
| 20260503014441 | 23 | 306 | 1.6 | 3.2 | 0.00 | 0.00 | 0.00 | 30 | 1013.5 |
| 20260503013939 | 24 | 321 | 0.0 | 3.2 | 0.00 | 0.00 | 0.00 | 30 | 1013.7 |
| 20260503013436 | 24 | 327 | 0.0 | 3.2 | 0.00 | 0.00 | 0.00 | 29 | 1013.7 |
| 20260503012933 | 24 | 316 | 3.2 | 6.4 | 0.00 | 0.00 | 0.00 | 30 | 1013.6 |
| 20260503012431 | 25 | 339 | 4.8 | 6.4 | 0.00 | 0.00 | 0.00 | 28 | 1013.8 |
| 20260503011926 | 25 | 323 | 3.2 | 4.8 | 0.00 | 0.00 | 0.00 | 28 | 1013.8 |
| 20260503011423 | 25 | 318 | 3.2 | 4.8 | 0.00 | 0.00 | 0.00 | 29 | 1013.8 |
| 20260503010921 | 25 | 305 | 6.4 | 9.7 | 0.00 | 0.00 | 0.00 | 28 | 1013.9 |
| 20260503010417 | 25 | 349 | 1.6 | 3.2 | 0.00 | 0.00 | 0.00 | 28 | 1013.8 |
| 20260503005915 | 25 | 322 | 1.6 | 4.8 | 0.00 | 0.00 | 0.00 | 29 | 1013.9 |
| 20260503005412 | 25 | 310 | 1.6 | 3.2 | 0.00 | 0.00 | 0.00 | 29 | 1014.1 |
| 20260503004908 | 25 | 323 | 1.6 | 3.2 | 0.00 | 0.00 | 0.00 | 28 | 1014.3 |
| 20260503004405 | 25 | 268 | 1.6 | 4.8 | 0.00 | 0.00 | 0.00 | 26 | 1014.2 |
| 20260503003903 | 25 | 29 | 0.0 | 3.2 | 0.00 | 0.00 | 0.00 | 25 | 1014.1 |
| 20260503003359 | 25 | 336 | 3.2 | 6.4 | 0.00 | 0.00 | 0.00 | 24 | 1014.3 |
| 20260503002856 | 25 | 311 | 3.2 | 4.8 | 0.00 | 0.00 | 0.00 | 23 | 1014.3 |
| 20260503002354 | 26 | 355 | 1.6 | 6.4 | 0.00 | 0.00 | 0.00 | 21 | 1014.1 |
| 20260503001850 | 26 | 341 | 1.6 | 3.2 | 0.00 | 0.00 | 0.00 | 22 | 1014.2 |
| 20260503001346 | 26 | 337 | 6.4 | 6.4 | 0.00 | 0.00 | 0.00 | 20 | 1014.3 |
| 20260503000844 | 26 | 308 | 3.2 | 6.4 | 0.00 | 0.00 | 0.00 | 24 | 1014.4 |
| 20260503000341 | 25 | 346 | 3.2 | 4.8 | 0.00 | 0.00 | 0.00 | 25 | 1014.2 |
| 20260502235838 | 25 | 14 | 4.8 | 12.9 | 0.00 | 0.00 | 0.00 | 24 | 1014.2 |
| 20260502235335 | 26 | 312 | 6.4 | 9.7 | 0.00 | 0.00 | 0.00 | 25 | 1014.3 |
| 20260502234832 | 26 | 25 | 6.4 | 11.3 | 0.00 | 0.00 | 0.00 | 25 | 1014.3 |
| 20260502234329 | 26 | 294 | 4.8 | 6.4 | 0.00 | 0.00 | 0.00 | 24 | 1014.4 |
| 20260502233826 | 26 | 279 | 3.2 | 4.8 | 0.00 | 0.00 | 0.00 | 26 | 1014.6 |
| 20260502233322 | 25 | 296 | 3.2 | 6.4 | 0.00 | 0.00 | 0.00 | 26 | 1014.4 |
| 20260502232819 | 25 | 19 | 6.4 | 11.3 | 0.00 | 0.00 | 0.00 | 28 | 1014.6 |
| 20260502232315 | 26 | 6 | 4.8 | 9.7 | 0.00 | 0.00 | 0.00 | 26 | 1014.5 |
| 20260502231812 | 25 | 19 | 0.0 | 6.4 | 0.00 | 0.00 | 0.00 | 26 | 1014.5 |
| 20260502231310 | 24 | 18 | 4.8 | 6.4 | 0.00 | 0.00 | 0.00 | 29 | 1014.5 |
| 20260502230808 | 24 | 10 | 1.6 | 6.4 | 0.00 | 0.00 | 0.00 | 28 | 1014.6 |
| 20260502230306 | 25 | 8 | 6.4 | 11.3 | 0.00 | 0.00 | 0.00 | 26 | 1014.7 |
| 20260502225802 | 25 | 9 | 8.0 | 11.3 | 0.00 | 0.00 | 0.00 | 29 | 1014.6 |
| 20260502225259 | 25 | 11 | 6.4 | 9.7 | 0.00 | 0.00 | 0.00 | 26 | 1014.9 |
| 20260502224755 | 26 | 54 | 3.2 | 4.8 | 0.00 | 0.00 | 0.00 | 28 | 1014.8 |
| 20260502224252 | 25 | 59 | 3.2 | 9.7 | 0.00 | 0.00 | 0.00 | 26 | 1014.7 |
| 20260502223749 | 25 | 28 | 8.0 | 11.3 | 0.00 | 0.00 | 0.00 | 27 | 1015.0 |
| 20260502223247 | 25 | 16 | 6.4 | 16.1 | 0.00 | 0.00 | 0.00 | 26 | 1015.1 |
| 20260502222745 | 25 | 303 | 4.8 | 6.4 | 0.00 | 0.00 | 0.00 | 27 | 1015.2 |
| 20260502222241 | 25 | 12 | 8.0 | 12.9 | 0.00 | 0.00 | 0.00 | 27 | 1015.2 |
| 20260502221737 | 25 | 282 | 1.6 | 11.3 | 0.00 | 0.00 | 0.00 | 28 | 1015.3 |
| 20260502221234 | 25 | 11 | 8.0 | 16.1 | 0.00 | 0.00 | 0.00 | 28 | 1015.3 |
| 20260502220731 | 24 | 327 | 4.8 | 6.4 | 0.00 | 0.00 | 0.00 | 27 | 1015.3 |
| 20260502220227 | 25 | 16 | 3.2 | 12.9 | 0.00 | 0.00 | 0.00 | 28 | 1015.5 |
| 20260502215724 | 25 | 296 | 6.4 | 9.7 | 0.00 | 0.00 | 0.00 | 28 | 1015.7 |
| 20260502215221 | 24 | 315 | 1.6 | 4.8 | 0.00 | 0.00 | 0.00 | 28 | 1015.7 |
| 20260502214718 | 24 | 310 | 1.6 | 6.4 | 0.00 | 0.00 | 0.00 | 30 | 1015.8 |
| 20260502214215 | 25 | 17 | 8.0 | 9.7 | 0.00 | 0.00 | 0.00 | 30 | 1015.8 |
| 20260502213712 | 25 | 282 | 1.6 | 6.4 | 0.00 | 0.00 | 0.00 | 30 | 1015.8 |
| 20260502213210 | 24 | 322 | 4.8 | 6.4 | 0.00 | 0.00 | 0.00 | 29 | 1016.0 |
| 20260502212708 | 23 | 13 | 4.8 | 4.8 | 0.00 | 0.00 | 0.00 | 30 | 1015.9 |
| 20260502212206 | 23 | 12 | 3.2 | 11.3 | 0.00 | 0.00 | 0.00 | 30 | 1016.0 |
| 20260502211702 | 24 | 55 | 8.0 | 9.7 | 0.00 | 0.00 | 0.00 | 29 | 1016.2 |
| 20260502211159 | 23 | 349 | 6.4 | 11.3 | 0.00 | 0.00 | 0.00 | 29 | 1016.1 |
| 20260502210656 | 23 | 355 | 6.4 | 9.7 | 0.00 | 0.00 | 0.00 | 29 | 1016.2 |
| 20260502210153 | 24 | 359 | 9.7 | 16.1 | 0.00 | 0.00 | 0.00 | 31 | 1016.4 |
| 20260502205650 | 23 | 193 | 1.6 | 4.8 | 0.00 | 0.00 | 0.00 | 28 | 1016.4 |
| 20260502205146 | 23 | 356 | 4.8 | 9.7 | 0.00 | 0.00 | 0.00 | 31 | 1016.5 |
| 20260502204643 | 23 | 18 | 1.6 | 9.7 | 0.00 | 0.00 | 0.00 | 32 | 1016.5 |
| 20260502204141 | 22 | 37 | 11.3 | 14.5 | 0.00 | 0.00 | 0.00 | 30 | 1016.6 |
| 20260502203638 | 22 | 7 | 4.8 | 9.7 | 0.00 | 0.00 | 0.00 | 33 | 1016.8 |
| 20260502203136 | 24 | 50 | 1.6 | 4.8 | 0.00 | 0.00 | 0.00 | 30 | 1016.6 |
| 20260502202630 | 23 | 355 | 4.8 | 16.1 | 0.00 | 0.00 | 0.00 | 30 | 1017.0 |
| 20260502202129 | 24 | 76 | 3.2 | 6.4 | 0.00 | 0.00 | 0.00 | 30 | 1017.1 |
| 20260502201625 | 24 | 332 | 0.0 | 4.8 | 0.00 | 0.00 | 0.00 | 29 | 1016.8 |
| 20260502201122 | 23 | 158 | 3.2 | 11.3 | 0.00 | 0.00 | 0.00 | 30 | 1016.7 |
| 20260502200617 | 22 | 296 | 0.0 | 3.2 | 0.00 | 0.00 | 0.00 | 31 | 1017.1 |
| 20260502200115 | 23 | 106 | 1.6 | 9.7 | 0.00 | 0.00 | 0.00 | 29 | 1017.2 |
| 20260502195613 | 22 | 85 | 0.0 | 4.8 | 0.00 | 0.00 | 0.00 | 30 | 1017.2 |
| 20260502195108 | 22 | 153 | 0.0 | 1.6 | 0.00 | 0.00 | 0.00 | 31 | 1017.2 |
| 20260502194606 | 23 | 37 | 3.2 | 12.9 | 0.00 | 0.00 | 0.00 | 30 | 1017.4 |
| 20260502194056 | 22 | 311 | 0.0 | 3.2 | 0.00 | 0.00 | 0.00 | 29 | 1017.5 |
| 20260502193554 | 23 | 137 | 0.0 | 9.7 | 0.00 | 0.00 | 0.00 | 29 | 1017.5 |
| 20260502193050 | 22 | 72 | 3.2 | 6.4 | 0.00 | 0.00 | 0.00 | 33 | 1017.5 |
| 20260502192546 | 21 | 164 | 3.2 | 4.8 | 0.00 | 0.00 | 0.00 | 33 | 1017.5 |
| 20260502192044 | 21 | 197 | 9.7 | 11.3 | 0.00 | 0.00 | 0.00 | 34 | 1017.7 |
| 20260502191540 | 21 | 174 | 6.4 | 9.7 | 0.00 | 0.00 | 0.00 | 31 | 1017.5 |
| 20260502191038 | 21 | 116 | 4.8 | 11.3 | 0.00 | 0.00 | 0.00 | 31 | 1017.8 |
| 20260502190535 | 20 | 159 | 4.8 | 11.3 | 0.00 | 0.00 | 0.00 | 32 | 1017.8 |
| 20260502190032 | 21 | 118 | 11.3 | 14.5 | 0.00 | 0.00 | 0.00 | 31 | 1017.7 |
| 20260502185526 | 21 | 34 | 4.8 | 4.8 | 0.00 | 0.00 | 0.00 | 35 | 1017.8 |
| 20260502185024 | 20 | 9 | 1.6 | 6.4 | 0.00 | 0.00 | 0.00 | 34 | 1018.1 |
| 20260502184519 | 20 | 10 | 6.4 | 12.9 | 0.00 | 0.00 | 0.00 | 33 | 1018.1 |
| 20260502184016 | 21 | 178 | 6.4 | 6.4 | 0.00 | 0.00 | 0.00 | 35 | 1018.0 |
| 20260502183512 | 20 | 89 | 0.0 | 9.7 | 0.00 | 0.00 | 0.00 | 35 | 1018.1 |
| 20260502183008 | 20 | 86 | 3.2 | 4.8 | 0.00 | 0.00 | 0.00 | 35 | 1018.1 |
| 20260502182503 | 20 | 164 | 0.0 | 6.4 | 0.00 | 0.00 | 0.00 | 34 | 1018.1 |
| 20260502181959 | 18 | 104 | 6.4 | 12.9 | 0.00 | 0.00 | 0.00 | 34 | 1018.1 |
| 20260502181457 | 20 | 142 | 8.0 | 9.7 | 0.00 | 0.00 | 0.00 | 34 | 1018.1 |
| 20260502180956 | 20 | 12 | 1.6 | 9.7 | 0.00 | 0.00 | 0.00 | 32 | 1018.5 |
| 20260502180453 | 20 | 47 | 1.6 | 6.4 | 0.00 | 0.00 | 0.00 | 34 | 1018.2 |
| 20260502170412 | 17 | 109 | 11.3 | 22.5 | 0.00 | 0.00 | 0.00 | 37 | 1018.9 |
| 20260502163855 | 16 | 60 | 1.6 | 4.8 | 0.00 | 0.00 | 0.00 | 54 | 1018.9 |
| 20260502163351 | 16 | 71 | 3.2 | 11.3 | 0.00 | 0.00 | 0.00 | 54 | 1018.6 |
| 20260502162849 | 15 | 60 | 1.6 | 6.4 | 0.00 | 0.00 | 0.00 | 56 | 1018.9 |
| 20260502162345 | 15 | 39 | 4.8 | 9.7 | 0.00 | 0.00 | 0.00 | 55 | 1018.8 |
| 20260502161843 | 15 | 327 | 3.2 | 6.4 | 0.00 | 0.00 | 0.00 | 54 | 1019.1 |
| 20260502161338 | 15 | 295 | 3.2 | 9.7 | 0.00 | 0.00 | 0.00 | 55 | 1018.7 |
| 20260502160837 | 14 | 5 | 3.2 | 4.8 | 0.00 | 0.00 | 0.00 | 55 | 1018.9 |
| 20260502160335 | 15 | 20 | 1.6 | 4.8 | 0.00 | 0.00 | 0.00 | 52 | 1018.7 |
| 20260502152305 | 13 | 326 | 0.0 | 0.0 | 0.00 | 0.00 | 0.00 | 55 | 1018.8 |
| 20260502151802 | 13 | 308 | 0.0 | 0.0 | 0.00 | 0.00 | 0.00 | 58 | 1018.9 |
| 20260502151259 | 12 | 333 | 0.0 | 0.0 | 0.00 | 0.00 | 0.00 | 58 | 1019.0 |
| 20260502150757 | 12 | 305 | 1.6 | 1.6 | 0.00 | 0.00 | 0.00 | 59 | 1018.9 |
| 20260502150253 | 12 | 358 | 0.0 | 0.0 | 0.00 | 0.00 | 0.00 | 59 | 1018.9 |
| 20260502130642 | 7 | 26 | 0.0 | 0.0 | 0.00 | 0.00 | 0.00 | 73 | 1018.0 |
| 20260502130139 | 7 | 34 | 0.0 | 0.0 | 0.00 | 0.00 | 0.00 | 72 | 1018.1 |
| 20260502123625 | 8 | 40 | 0.0 | 0.0 | 0.00 | 0.00 | 0.00 | 68 | 1018.0 |
| 20260502123121 | 8 | 312 | 1.6 | 3.2 | 0.00 | 0.00 | 0.00 | 66 | 1017.9 |
| 20260502122618 | 9 | 17 | 0.0 | 0.0 | 0.00 | 0.00 | 0.00 | 63 | 1017.8 |
| 20260502122114 | 8 | 45 | 1.6 | 1.6 | 0.00 | 0.00 | 0.00 | 65 | 1018.0 |
| 20260502121613 | 8 | 62 | 1.6 | 1.6 | 0.00 | 0.00 | 0.00 | 65 | 1018.0 |
| 20260502121110 | 9 | 31 | 0.0 | 0.0 | 0.00 | 0.00 | 0.00 | 63 | 1018.1 |
| 20260502120606 | 11 | 288 | 0.0 | 1.6 | 0.00 | 0.00 | 0.00 | 57 | 1017.9 |
| 20260502115601 | 9 | 49 | 0.0 | 1.6 | 0.00 | 0.00 | 0.00 | 63 | 1018.1 |
| 20260502115056 | 8 | 33 | 0.0 | 1.6 | 0.00 | 0.00 | 0.00 | 64 | 1018.0 |
| 20260502114553 | 9 | 43 | 0.0 | 3.2 | 0.00 | 0.00 | 0.00 | 63 | 1017.9 |
| 20260502114050 | 9 | 9 | 0.0 | 1.6 | 0.00 | 0.00 | 0.00 | 63 | 1017.9 |
| 20260502113548 | 9 | 357 | 0.0 | 1.6 | 0.00 | 0.00 | 0.00 | 63 | 1018.1 |
| 20260502113046 | 9 | 18 | 1.6 | 3.2 | 0.00 | 0.00 | 0.00 | 63 | 1017.9 |
| 20260502112544 | 8 | 22 | 1.6 | 1.6 | 0.00 | 0.00 | 0.00 | 66 | 1017.8 |
| 20260502112041 | 8 | 38 | 0.0 | 0.0 | 0.00 | 0.00 | 0.00 | 66 | 1018.0 |
| 20260502111538 | 9 | 37 | 0.0 | 1.6 | 0.00 | 0.00 | 0.00 | 65 | 1017.9 |
| 20260502111036 | 8 | 21 | 0.0 | 0.0 | 0.00 | 0.00 | 0.00 | 66 | 1018.2 |
| 20260502110533 | 8 | 14 | 0.0 | 0.0 | 0.00 | 0.00 | 0.00 | 66 | 1018.0 |
| 20260502110031 | 9 | 47 | 0.0 | 1.6 | 0.00 | 0.00 | 0.00 | 65 | 1018.1 |
| 20260502105527 | 9 | 15 | 0.0 | 1.6 | 0.00 | 0.00 | 0.00 | 65 | 1018.0 |
| 20260502105025 | 9 | 25 | 0.0 | 0.0 | 0.00 | 0.00 | 0.00 | 65 | 1018.1 |
| 20260502104522 | 9 | 52 | 0.0 | 1.6 | 0.00 | 0.00 | 0.00 | 65 | 1018.0 |
| 20260502104020 | 9 | 334 | 0.0 | 0.0 | 0.00 | 0.00 | 0.00 | 64 | 1017.9 |
| 20260502103517 | 9 | 13 | 0.0 | 0.0 | 0.00 | 0.00 | 0.00 | 64 | 1017.8 |
| 20260502103015 | 9 | 28 | 0.0 | 1.6 | 0.00 | 0.00 | 0.00 | 64 | 1017.9 |
| 20260502102511 | 10 | 318 | 0.0 | 0.0 | 0.00 | 0.00 | 0.00 | 62 | 1018.0 |
| 20260502102008 | 10 | 271 | 0.0 | 1.6 | 0.00 | 0.00 | 0.00 | 61 | 1018.0 |
| 20260502101506 | 11 | 25 | 0.0 | 0.0 | 0.00 | 0.00 | 0.00 | 59 | 1017.7 |
| 20260502101004 | 11 | 7 | 0.0 | 1.6 | 0.00 | 0.00 | 0.00 | 58 | 1017.7 |
| 20260502100503 | 11 | 357 | 0.0 | 0.0 | 0.00 | 0.00 | 0.00 | 58 | 1017.9 |
| 20260502091437 | 13 | 14 | 1.6 | 3.2 | 0.00 | 0.00 | 0.00 | 52 | 1017.8 |
| 20260502090934 | 13 | 22 | 4.8 | 4.8 | 0.00 | 0.00 | 0.00 | 53 | 1017.9 |
| 20260502090431 | 11 | 28 | 0.0 | 0.0 | 0.00 | 0.00 | 0.00 | 61 | 1017.8 |
| 20260502071320 | 12 | 314 | 0.0 | 0.0 | 0.00 | 0.00 | 0.00 | 57 | 1018.0 |
| 20260502070819 | 12 | 9 | 0.0 | 0.0 | 0.00 | 0.00 | 0.00 | 58 | 1018.0 |
| 20260502070316 | 12 | 33 | 0.0 | 0.0 | 0.00 | 0.00 | 0.00 | 57 | 1018.1 |
| 20260502065815 | 12 | 298 | 0.0 | 0.0 | 0.00 | 0.00 | 0.00 | 57 | 1018.1 |
| 20260502065313 | 12 | 327 | 0.0 | 0.0 | 0.00 | 0.00 | 0.00 | 58 | 1018.2 |
| 20260502064810 | 12 | 29 | 0.0 | 0.0 | 0.00 | 0.00 | 0.00 | 58 | 1018.2 |
| 20260502064308 | 12 | 300 | 0.0 | 0.0 | 0.00 | 0.00 | 0.00 | 57 | 1018.1 |
| 20260502063805 | 12 | 264 | 0.0 | 0.0 | 0.00 | 0.00 | 0.00 | 59 | 1018.1 |
| 20260502063303 | 12 | 257 | 0.0 | 0.0 | 0.00 | 0.00 | 0.00 | 58 | 1018.2 |
| 20260502062759 | 12 | 310 | 0.0 | 0.0 | 0.00 | 0.00 | 0.00 | 59 | 1017.8 |
| 20260502062257 | 12 | 245 | 1.6 | 3.2 | 0.00 | 0.00 | 0.00 | 58 | 1018.0 |
| 20260502061756 | 12 | 328 | 0.0 | 0.0 | 0.00 | 0.00 | 0.00 | 55 | 1018.1 |
| 20260502061253 | 12 | 99 | 0.0 | 0.0 | 0.00 | 0.00 | 0.00 | 55 | 1017.8 |
| 20260502060753 | 13 | 189 | 0.0 | 0.0 | 0.00 | 0.00 | 0.00 | 55 | 1017.9 |
| 20260502060249 | 13 | 236 | 3.2 | 4.8 | 0.00 | 0.00 | 0.00 | 55 | 1017.9 |
| 20260502055748 | 16 | 268 | 4.8 | 6.4 | 0.00 | 0.00 | 0.00 | 48 | 1017.7 |
| 20260502055245 | 16 | 41 | 3.2 | 4.8 | 0.00 | 0.00 | 0.00 | 44 | 1017.8 |
| 20260502054744 | 16 | 72 | 6.4 | 11.3 | 0.00 | 0.00 | 0.00 | 44 | 1017.9 |
| 20260502054241 | 16 | 84 | 4.8 | 14.5 | 0.00 | 0.00 | 0.00 | 44 | 1017.8 |
| 20260502053739 | 16 | 70 | 6.4 | 11.3 | 0.00 | 0.00 | 0.00 | 44 | 1017.8 |
| 20260502053236 | 16 | 91 | 8.0 | 11.3 | 0.00 | 0.00 | 0.00 | 45 | 1017.9 |
| 20260502052734 | 16 | 80 | 6.4 | 9.7 | 0.00 | 0.00 | 0.00 | 45 | 1017.9 |
| 20260502052231 | 16 | 70 | 3.2 | 9.7 | 0.00 | 0.00 | 0.00 | 45 | 1017.9 |
| 20260502051729 | 16 | 32 | 4.8 | 9.7 | 0.00 | 0.00 | 0.00 | 43 | 1017.9 |
| 20260502051227 | 16 | 52 | 6.4 | 12.9 | 0.00 | 0.00 | 0.00 | 43 | 1017.9 |